Location: Unspecified
(42.3650°N, 71.1030°W)
Time: 06:47:45
(UTC+00:00)

Tiangong - Pass Details

Date: 31 May 2024
Orbit: 378 x 384 km, 41.5° (Epoch: 21 June)

Event Time Altitude Azimuth Distance (km) Brightness Sun altitude
Exits shadow 07:08:01 62° 235° (SW) 426 -2.3 -17.4°
Maximum altitude 07:08:21 71° 187° (S) 401 -2.3 -17.3°
Drops below altitude 10° 07:11:27 10° 102° (ESE) 1,384 1.0 -17.0°
Sets 07:13:31 0° 100° (E) 2,234 2.1 -16.8°
